Overview Statistics Trail Chart Weather Telemetry Raw packets
 

This is the latest recevied weather packets stored in our database for station/object R2AKT-13. If no packets are shown the sender has not sent any weather packets the latest 10 day(s).

<< 33 34 35 36 37 38 39 >>
Time Temp. Humidity Pressure Rain* Wind** Luminosity Snow
1788258126 22.78° C 54% 991.8 hPa - 3.58 m/s, 169° - -
1788257537 22.78° C 55% 991.9 hPa - 1.79 m/s, 210° - -
1788257001 23.33° C 54% 991.8 hPa - 1.79 m/s, 178° - -
1788256471 22.22° C 57% 991.8 hPa - 1.79 m/s, 200° - -
1788255906 22.22° C 56% 991.8 hPa - 2.24 m/s, 189° - -
1788255336 21.67° C 56% 991.8 hPa - 2.24 m/s, 174° - -
1788254796 23.33° C 54% 991.8 hPa - 0.89 m/s, 185° - -
1788254266 21.67° C 58% 991.9 hPa - 3.13 m/s, 181° - -
1788253786 22.22° C 57% 991.8 hPa - 2.24 m/s, 167° - -
1788253287 21.67° C 58% 992 hPa - 1.79 m/s, 190° - -
1788252696 22.22° C 57% 992 hPa - 1.79 m/s, 184° - -
1788252201 22.22° C 58% 992.1 hPa - 1.79 m/s, 182° - -
1788251651 22.22° C 58% 992.1 hPa - 0.45 m/s, 179° - -
1788251051 23.33° C 55% 992.2 hPa - 1.34 m/s, 181° - -
1788250511 22.22° C 59% 992.2 hPa - 0.89 m/s, 171° - -
1788249916 21.67° C 60% 992.2 hPa - 3.13 m/s, 166° - -
1788249381 21.67° C 60% 992.2 hPa - 1.79 m/s, 169° - -
1788248796 21.11° C 61% 992.3 hPa - 1.79 m/s, 189° - -
1788248276 21.11° C 61% 992.4 hPa - 1.34 m/s, 177° - -
1788247681 20.56° C 64% 992.3 hPa - 0.45 m/s, 201° - -
1788247131 20.56° C 64% 992.4 hPa - 0 m/s - -
1788246556 20° C 66% 992.4 hPa - 1.34 m/s, 172° - -
1788246071 20° C 67% 992.4 hPa - 0.45 m/s, 192° - -
1788245506 19.44° C 67% 992.4 hPa - 1.79 m/s, 201° - -
1788245021 19.44° C 68% 992.4 hPa - 1.79 m/s, 177° - -

* Rain since midnight (hover to see other rain measurements)
** Current wind speed in m/s (hover to see current wind gust speed)